Theta_e
341 341 341 339 340 340 340 340 341 340 336 335 335 336 337 338 337 337 334 333 329 325 322 326 330 330 327 332 334 335 334 334
341 341 342 342 342 341 340 340 337 335 336 336 336 332 333 334 334 332 331 325 325 324 326 331 332 329 327 332 334 335 334 333
341 342 342 342 342 341 340 336 335 336 336 336 332 333 331 331 330 328 322 327 331 332 332 333 331 328 328 331 335 335 334 333
340 342 343 342 341 342 342 339 337 337 336 335 334 331 330 326 330 324 324 332 332 331 330 333 333 332 333 335 336 334 335 333
339 341 342 341 341 340 341 338 337 334 336 336 333 330 329 328 330 329 332 331 332 331 330 335 336 335 335 336 334 334 333 330
338 340 340 341 340 339 340 340 337 335 336 332 330 329 329 330 330 332 332 333 335 335 332 335 337 336 335 334 333 333 331 328
337 340 340 340 340 339 339 341 340 336 336 333 330 329 330 328 331 333 335 336 336 336 337 338 337 335 333 332 334 331 330 327
337 338 339 340 339 339 340 337 340 337 336 335 329 330 331 328 331 333 334 335 335 336 337 336 334 333 332 332 332 331 328 325
336 335 336 340 339 339 337 338 339 338 338 334 326 329 332 331 331 333 334 334 335 336 335 332 331 332 330 329 329 328 327 324
335 334 336 337 338 338 337 337 337 339 337 333 327 327 331 331 332 333 334 334 334 334 333 332 331 329 327 327 328 325 322 322
334 334 335 335 335 335 335 336 337 336 336 332 328 326 329 330 331 332 334 333 333 333 334 332 330 328 326 325 323 321 320 319
335 333 334 334 334 334 331 334 335 335 335 332 329 325 327 328 330 333 332 331 332 334 333 332 330 327 324 320 318 318 318 318
334 334 334 333 333 332 332 331 333 336 334 331 330 326 325 326 328 332 331 331 333 335 332 330 328 325 320 315 316 317 315 314
334 333 332 333 332 332 334 332 329 332 333 330 331 329 327 325 324 330 330 330 335 334 331 328 325 325 328 322 319 316 315 315
335 334 332 332 332 333 334 332 329 327 330 332 330 330 329 327 325 327 330 330 335 333 331 330 327 326 328 330 327 331 321 316
336 334 333 332 332 332 331 332 329 326 327 330 329 330 330 329 327 326 329 330 334 334 333 332 331 328 329 329 324 326 325 321
336 334 333 333 333 331 332 331 328 326 324 327 330 329 330 330 330 328 328 328 331 333 333 334 333 331 330 329 324 322 321 324
336 336 335 333 332 331 331 331 328 325 324 324 328 328 330 330 330 330 328 327 328 332 333 333 333 333 331 329 326 324 323 318
337 336 336 334 332 331 330 330 328 327 325 324 325 327 328 330 330 331 331 329 329 331 332 332 333 333 333 331 328 327 320 317
337 336 336 335 333 330 328 328 328 327 325 324 324 326 327 328 330 330 331 331 332 333 333 334 333 333 334 332 330 327 322 318
Wind_Speed
15 16 15 16 17 21 24 26 30 35 32 30 28 27 27 27 32 31 31 29 31 31 30 29 28 26 26 27 22 18 17 18
15 16 16 16 17 22 27 30 32 31 30 28 29 28 28 27 30 31 30 33 32 30 29 28 26 26 25 25 25 18 16 18
16 15 17 17 17 22 28 31 30 30 30 30 27 23 24 25 24 31 35 35 32 29 27 26 26 24 23 21 14 16 14 14
15 16 17 18 18 23 25 30 33 31 29 28 23 23 23 24 26 33 36 33 28 24 24 26 22 19 19 13 12 13 13 14
18 18 18 19 19 22 23 32 33 31 32 24 23 23 24 25 28 31 28 26 21 21 22 20 17 17 15 12 14 13 14 14
20 20 19 19 20 23 23 27 30 30 27 27 23 23 26 26 29 26 24 22 20 21 21 17 17 15 14 16 13 13 14 14
24 23 22 22 21 22 24 22 25 30 26 25 22 24 25 27 26 25 24 22 20 18 17 19 16 16 16 17 14 15 15 14
26 25 23 23 22 21 19 25 23 29 27 25 23 24 26 27 27 25 23 22 20 19 20 18 16 19 17 15 15 14 13 15
30 27 26 23 23 22 24 23 23 27 29 25 26 24 25 26 26 26 24 22 20 19 18 19 18 16 17 18 15 13 14 14
31 30 28 26 25 24 18 27 28 23 26 25 24 23 24 25 24 24 23 21 20 20 16 17 17 16 18 14 12 13 13 13
34 32 31 29 26 25 21 26 28 26 25 26 26 25 25 24 24 23 22 21 19 19 17 18 18 16 15 12 12 13 13 10
34 32 32 31 28 25 22 22 24 26 25 26 28 26 26 25 24 23 22 21 19 18 18 18 17 17 15 12 11 13 10 9
36 35 35 33 29 27 25 24 27 25 23 27 29 28 26 25 24 24 22 21 21 21 19 20 18 19 17 11 10 10 8 8
38 36 35 36 31 30 27 26 27 28 27 26 29 29 28 26 24 25 24 22 22 23 23 21 14 20 12 10 3 3 9 11
40 39 38 37 34 31 27 26 25 26 29 28 31 31 31 29 25 26 25 24 24 25 24 22 18 21 19 7 4 5 10 12
39 38 38 38 37 34 34 33 30 31 32 32 32 32 31 30 28 26 26 25 25 26 24 22 18 24 17 13 4 5 4 5
36 38 38 38 40 36 36 32 31 31 31 31 32 33 33 32 29 28 27 27 26 26 25 23 21 20 20 16 12 8 5 4
36 38 38 38 40 40 38 34 31 31 32 32 33 33 34 33 31 30 28 28 27 27 26 24 23 22 21 18 16 9 12 6
35 37 38 40 41 41 39 35 33 32 34 34 33 32 34 34 34 31 30 29 27 25 25 24 26 25 24 22 18 15 9 12
34 37 37 39 40 40 40 38 35 32 35 33 35 35 35 34 34 32 30 29 28 26 24 25 24 26 25 23 19 17 14 14
Wind_Direction
164 165 160 152 153 159 159 163 163 161 160 158 159 152 150 143 143 150 153 149 144 146 145 143 139 137 133 120 115 104 105 108
162 164 160 154 149 160 158 160 153 154 154 157 155 154 155 153 153 154 151 146 146 146 146 143 141 140 135 125 114 104 103 102
167 166 164 158 154 156 157 155 156 158 155 156 151 147 146 149 153 154 151 149 147 146 147 147 143 142 138 121 103 106 105 106
171 171 165 163 157 157 152 154 153 154 154 149 151 150 150 152 156 154 154 154 152 154 153 149 136 140 140 112 114 115 109 111
174 173 170 168 161 161 155 159 158 153 152 151 151 148 147 150 152 154 155 160 161 159 153 152 154 152 153 134 128 120 116 115
179 179 174 178 165 168 165 158 166 165 165 153 153 152 148 152 157 160 160 162 158 163 167 166 160 154 151 140 136 127 121 120
184 181 181 177 175 171 171 169 163 166 167 168 161 160 156 159 160 161 163 161 160 162 163 154 148 148 147 143 134 132 128 127
184 182 184 182 177 176 174 173 172 170 171 172 168 165 163 165 167 167 165 165 162 156 153 150 144 149 142 141 135 133 133 132
189 184 182 185 181 177 177 181 176 173 171 172 169 165 164 166 167 169 168 165 159 153 146 144 139 140 138 141 133 136 138 138
191 188 183 186 187 181 172 178 183 171 168 170 174 170 169 167 167 167 166 163 162 160 156 144 142 142 140 135 141 142 141 138
191 190 187 184 187 185 185 183 179 174 167 169 179 176 174 171 172 169 166 165 165 163 159 152 143 140 138 137 139 143 146 146
191 189 188 182 181 184 181 182 184 180 179 180 179 179 178 176 175 172 170 171 169 166 159 157 154 149 135 125 138 152 153 160
193 189 188 182 176 180 176 185 187 190 184 182 181 183 182 178 177 176 177 177 174 169 158 153 148 151 129 113 135 160 169 175
195 192 191 188 182 183 187 189 188 190 188 186 187 186 185 183 181 180 182 181 177 170 165 155 159 168 160 137 149 207 210 200
197 192 189 192 188 185 193 189 188 187 190 187 191 190 187 187 186 185 185 187 182 177 177 176 168 184 185 173 159 215 157 205
199 193 191 193 191 189 192 188 188 190 189 194 193 193 190 190 191 189 188 190 189 189 189 191 184 183 194 213 229 135 189 162
197 195 196 194 194 192 190 194 194 187 187 192 193 195 196 194 193 193 193 193 196 196 195 198 198 195 200 199 203 201 216 250
195 197 198 195 195 195 192 195 193 187 185 189 193 195 198 198 196 196 197 199 199 199 201 203 204 208 205 203 200 194 200 171
196 196 195 197 197 196 194 194 195 191 187 185 190 194 197 198 196 197 200 202 203 204 206 211 212 212 210 211 214 219 189 186
196 194 198 195 198 198 193 194 196 196 192 191 192 194 196 200 198 200 202 203 205 207 211 213 215 216 217 217 218 218 211 197